AA8FM-13 Weather Reports


time (UTC)temp
F
wind
direction
speed
knots
gust
knots
rain 1hr
in
rain 24hr
in
rain mn
in
humidity
%
barometer
mb
20260505022836 60 254 0.0 0.0 0.00 0.00 0.00 73 1006.9
20260505022333 60 244 0.0 0.0 0.00 0.00 0.00 73 1006.7
20260505021830 60 225 0.0 0.0 0.00 0.00 0.00 74 1006.7
20260505021327 60 279 0.0 0.0 0.00 0.00 0.00 72 1006.6
20260505020822 60 279 0.0 0.0 0.00 0.00 0.00 71 1006.7
20260505020318 60 279 0.0 0.0 0.00 0.00 0.00 72 1006.9
20260505015815 60 257 0.0 0.0 0.00 0.00 0.00 72 1006.9
20260505015312 61 265 0.0 0.0 0.00 0.00 0.00 69 1006.7
20260505014810 61 278 0.0 0.0 0.00 0.00 0.00 70 1007.1
20260505014307 61 264 0.0 0.0 0.00 0.00 0.00 69 1006.9
20260505013803 62 267 0.0 0.0 0.00 0.00 0.00 68 1006.9
20260505013300 62 316 0.0 0.0 0.00 0.00 0.00 66 1006.9
20260505012758 62 294 0.0 0.0 0.00 0.00 0.00 67 1006.9
20260505012256 63 304 0.0 0.0 0.00 0.00 0.00 66 1006.7
20260505011751 63 247 0.0 0.0 0.00 0.00 0.00 66 1006.7
20260505011248 64 252 0.0 0.0 0.00 0.00 0.00 64 1007.1
20260505010744 64 230 0.0 0.0 0.00 0.00 0.00 63 1007.1
20260505010240 64 240 0.0 0.0 0.00 0.00 0.00 64 1006.9
20260505005737 65 229 0.0 0.0 0.00 0.00 0.00 63 1006.8
20260505005234 66 235 0.0 0.0 0.00 0.00 0.00 61 1006.7
20260505004731 66 177 0.0 0.0 0.00 0.00 0.00 61 1006.7
20260505004228 66 242 0.0 0.0 0.00 0.00 0.00 59 1006.9
20260505003725 66 237 0.0 0.0 0.00 0.00 0.00 60 1006.7
20260505003223 67 219 0.0 0.0 0.00 0.00 0.00 57 1006.9
20260505002718 67 198 0.0 0.0 0.00 0.00 0.00 57 1006.8
20260505002216 68 172 0.9 1.7 0.00 0.00 0.00 56 1006.8
20260505001714 68 183 0.0 0.0 0.00 0.00 0.00 57 1006.8
20260505001211 68 142 0.9 1.7 0.00 0.00 0.00 56 1006.7
20260505000708 68 40 0.9 1.7 0.00 0.00 0.00 55 1006.8
20260505000206 68 159 5.2 7.0 0.00 0.00 0.00 54 1006.5
20260504235702 69 58 0.9 0.9 0.00 0.00 0.00 55 1006.5
20260504235158 69 64 0.9 1.7 0.00 0.00 0.00 54 1006.6
20260504234656 68 186 0.9 1.7 0.00 0.00 0.00 54 1006.8
20260504234153 69 270 0.0 0.0 0.00 0.00 0.00 55 1006.5
20260504233649 69 260 0.0 0.0 0.00 0.00 0.00 54 1006.5
20260504233144 69 11 2.6 3.5 0.00 0.00 0.00 53 1006.6
20260504232643 70 19 1.7 2.6 0.00 0.00 0.00 53 1006.5
20260504232139 71 203 1.7 1.7 0.00 0.00 0.00 52 1006.4
20260504231636 71 285 0.9 0.9 0.00 0.00 0.00 51 1006.5
20260504231132 71 191 0.0 0.0 0.00 0.00 0.00 51 1006.4
20260504230629 71 19 5.2 7.0 0.00 0.00 0.00 51 1006.5
20260504230127 70 172 0.0 0.9 0.00 0.00 0.00 53 1006.4
20260504225625 70 215 0.9 1.7 0.00 0.00 0.00 55 1006.6
20260504225121 70 339 1.7 2.6 0.00 0.00 0.00 54 1006.5
20260504224618 70 24 0.9 2.6 0.00 0.00 0.00 53 1006.2
20260504224115 71 195 1.7 1.7 0.00 0.00 0.00 53 1006.5
20260504223612 71 235 0.0 0.0 0.00 0.00 0.00 53 1006.3
20260504223108 70 102 5.2 7.8 0.00 0.00 0.00 53 1006.4
20260504222605 70 110 0.0 0.0 0.00 0.00 0.00 53 1006.6
20260504222102 70 177 0.0 0.9 0.00 0.00 0.00 54 1006.4
20260504221559 71 99 2.6 2.6 0.00 0.00 0.00 51 1006.7
20260504221056 71 311 1.7 3.5 0.00 0.00 0.00 54 1006.7
20260504220552 70 122 1.7 3.5 0.00 0.00 0.00 53 1006.5
20260504220049 71 254 2.6 3.5 0.00 0.00 0.00 51 1006.8
20260504215546 71 54 0.9 0.9 0.00 0.00 0.00 51 1006.7
20260504215044 71 212 0.0 0.0 0.00 0.00 0.00 52 1006.6
20260504214539 72 180 5.2 6.1 0.00 0.00 0.00 50 1006.4
20260504214036 71 300 0.0 0.9 0.00 0.00 0.00 49 1006.3
20260504213532 70 221 0.0 0.9 0.00 0.00 0.00 53 1006.6
20260504213030 70 144 4.3 6.1 0.00 0.00 0.00 52 1006.3
20260504212525 70 223 0.0 0.9 0.00 0.00 0.00 54 1006.5
20260504212023 70 125 0.9 1.7 0.00 0.00 0.00 52 1006.4
20260504211520 70 347 1.7 2.6 0.00 0.00 0.00 53 1006.7
20260504211017 70 162 0.9 0.9 0.00 0.00 0.00 53 1006.3
20260504210513 70 70 1.7 2.6 0.00 0.00 0.00 52 1006.7
20260504210010 71 144 0.0 0.9 0.00 0.00 0.00 51 1006.6
20260504205508 71 348 2.6 5.2 0.00 0.00 0.00 51 1006.4
20260504205006 71 359 1.7 3.5 0.00 0.00 0.00 52 1006.2
20260504204504 71 11 1.7 2.6 0.00 0.00 0.00 51 1006.3
20260504204003 70 111 0.9 0.9 0.00 0.00 0.00 51 1006.3
20260504203500 70 354 2.6 3.5 0.00 0.00 0.00 51 1006.5
20260504202956 72 116 1.7 2.6 0.00 0.00 0.00 50 1006.6
20260504202452 72 155 0.9 1.7 0.00 0.00 0.00 49 1006.4
20260504201949 72 335 3.5 5.2 0.00 0.00 0.00 50 1006.5
20260504201447 72 350 0.0 0.0 0.00 0.00 0.00 50 1006.5
20260504200944 70 152 4.3 7.0 0.00 0.00 0.00 52 1006.6
20260504200441 70 106 1.7 2.6 0.00 0.00 0.00 50 1006.7
20260504195937 71 105 1.7 2.6 0.00 0.00 0.00 50 1006.7
20260504195433 71 272 0.0 0.9 0.00 0.00 0.00 51 1006.6
20260504194930 71 143 4.3 8.7 0.00 0.00 0.00 49 1006.8
20260504194426 73 288 2.6 5.2 0.00 0.00 0.00 51 1006.5
20260504193922 71 179 0.0 0.9 0.00 0.00 0.00 51 1006.5
20260504193419 71 165 7.8 13.9 0.00 0.00 0.00 49 1006.7
20260504192918 70 66 0.9 0.9 0.00 0.00 0.00 52 1006.6
20260504192415 72 259 0.9 1.7 0.00 0.00 0.00 52 1006.8
20260504191914 71 207 2.6 5.2 0.00 0.00 0.00 50 1006.6
20260504191411 73 183 5.2 13.0 0.00 0.00 0.00 50 1006.8
20260504190906 71 218 3.5 6.1 0.00 0.00 0.00 52 1006.6
20260504190402 71 158 5.2 7.0 0.00 0.00 0.00 54 1006.6
20260504185859 71 129 3.5 5.2 0.00 0.00 0.00 51 1007.2
20260504185356 70 91 1.7 3.5 0.00 0.00 0.00 53 1007.2
20260504184852 71 64 1.7 2.6 0.00 0.00 0.00 52 1007.3
20260504184348 70 211 5.2 7.8 0.00 0.00 0.00 53 1007.3
20260504183844 71 279 0.9 1.7 0.00 0.00 0.00 51 1007.3
20260504183342 70 244 0.0 0.0 0.00 0.00 0.00 54 1007.4
20260504182839 70 175 5.2 7.8 0.00 0.00 0.00 52 1007.6
20260504182337 69 344 0.9 2.6 0.00 0.00 0.00 55 1007.5
20260504181833 69 180 0.0 0.9 0.00 0.00 0.00 55 1007.7
20260504181331 69 99 0.9 2.6 0.00 0.00 0.00 54 1007.8
20260504180830 68 206 0.9 0.9 0.00 0.00 0.00 55 1007.7
20260504180328 68 143 7.8 9.6 0.00 0.00 0.00 56 1007.7
20260504175826 68 40 0.0 0.9 0.00 0.00 0.00 56 1007.9
20260504175322 69 295 0.9 2.6 0.00 0.00 0.00 55 1008.0
20260504174821 68 96 1.7 3.5 0.00 0.00 0.00 56 1007.9
20260504174317 67 60 2.6 6.1 0.00 0.00 0.00 56 1008.1
20260504173814 68 75 3.5 6.1 0.00 0.00 0.00 56 1008.1
20260504173311 68 184 1.7 1.7 0.00 0.00 0.00 58 1008.1
20260504172808 67 179 4.3 6.1 0.00 0.00 0.00 55 1008.2
20260504172305 67 146 1.7 2.6 0.00 0.00 0.00 55 1008.1
20260504171800 67 135 4.3 7.0 0.00 0.00 0.00 56 1008.4
20260504171258 67 355 5.2 8.7 0.00 0.00 0.00 57 1008.3
20260504170755 66 159 7.8 12.2 0.00 0.00 0.00 57 1008.5
20260504170252 66 132 6.1 9.6 0.00 0.00 0.00 58 1008.5
20260504160210 67 355 3.5 3.5 0.00 0.00 0.00 53 1009.3
20260504151138 66 317 1.7 2.6 0.00 0.00 0.00 54 1009.9
20260504150636 65 165 1.7 2.6 0.00 0.00 0.00 54 1009.6
20260504150132 65 82 3.5 5.2 0.00 0.00 0.00 52 1010.1
20260504141101 62 93 1.7 2.6 0.00 0.00 0.00 54 1010.1
20260504140558 62 145 0.9 1.7 0.00 0.00 0.00 53 1010.0
20260504130522 58 59 1.7 2.6 0.00 0.00 0.00 55 1010.0
20260504110409 50 168 0.9 0.9 0.00 0.00 0.00 76 1010.7
20260504100326 49 214 0.0 0.0 0.00 0.00 0.00 72 1010.8
20260504081720 50 305 0.0 0.9 0.00 0.00 0.00 72 1011.4
20260504081216 50 182 0.9 0.9 0.00 0.00 0.00 66 1011.5
20260504080713 50 207 0.0 0.0 0.00 0.00 0.00 67 1011.6
20260504080209 50 162 0.9 0.9 0.00 0.00 0.00 65 1011.5
20260504070137 50 261 0.0 0.0 0.00 0.00 0.00 61 1011.6
20260504050526 48 248 0.0 0.0 0.00 0.00 0.00 63 1012.0
20260504050022 48 250 0.0 0.0 0.00 0.00 0.00 64 1011.7
20260504045519 48 254 0.0 0.0 0.00 0.00 0.00 65 1012.0
20260504045015 48 253 0.0 0.0 0.00 0.00 0.00 65 1012.0
20260504044513 48 249 0.0 0.0 0.00 0.00 0.00 65 1012.0
20260504044009 48 256 0.0 0.0 0.00 0.00 0.00 64 1012.0
20260504043506 49 256 0.0 0.0 0.00 0.00 0.00 62 1012.0
20260504043004 50 242 0.0 0.0 0.00 0.00 0.00 64 1011.9
20260504042500 50 230 0.0 0.0 0.00 0.00 0.00 59 1011.9
20260504041957 50 228 0.0 0.0 0.00 0.00 0.00 61 1011.9
20260504041453 50 235 0.0 0.0 0.00 0.00 0.00 65 1012.1
20260504040949 50 233 0.0 0.0 0.00 0.00 0.00 65 1012.0
20260504040447 50 269 0.0 0.0 0.00 0.00 0.00 65 1012.0
20260504035943 49 179 0.0 0.0 0.00 0.00 0.00 64 1012.1
20260504035441 49 247 0.0 0.0 0.00 0.00 0.00 69 1012.0
20260504034937 49 244 0.0 0.0 0.00 0.00 0.00 69 1011.9
20260504034435 48 269 0.0 0.0 0.00 0.00 0.00 69 1012.1
20260504033931 48 249 0.0 0.0 0.00 0.00 0.00 78 1011.9
20260504033429 48 246 0.0 0.0 0.00 0.00 0.00 78 1012.1
20260504032926 47 258 0.0 0.0 0.00 0.00 0.00 74 1012.1
20260504032423 47 254 0.0 0.0 0.00 0.00 0.00 78 1011.9
20260504031920 47 251 0.0 0.0 0.00 0.00 0.00 78 1012.2
20260504031417 46 254 0.0 0.0 0.00 0.00 0.00 77 1012.1
20260504030913 46 254 0.0 0.0 0.00 0.00 0.00 78 1012.1
20260504030410 46 238 0.0 0.0 0.00 0.00 0.00 78 1012.1
20260504025906 46 256 0.0 0.0 0.00 0.00 0.00 73 1012.0
20260504025403 46 265 0.0 0.0 0.00 0.00 0.00 74 1012.1
20260504024900 46 269 0.0 0.0 0.00 0.00 0.00 76 1011.9
20260504024356 46 253 0.0 0.0 0.00 0.00 0.00 74 1012.1
20260504023854 46 253 0.0 0.0 0.00 0.00 0.00 71 1012.2
20260504023350 46 264 0.0 0.0 0.00 0.00 0.00 68 1012.4